Weather in Brusenets

Russia / Vologda Oblast     60°14′44″N   43°57′40″E
temp.,
°C
wind,
m/s
gust,
m/s
humid.,
%
clouds,
%
prec.,
mm/h
press.,
hPa
HPBL,
m
11 may, tue
tue1100:00+5ssw117289 0.0 102910
03:00+4ssw22785 0.0 103025
06:00+7ssw2469100 0.0 1030119
09:00+13sw234734 0.0 1030561
12:00+17sw234499 0.0 1030891
15:00+18sw2346100 0.0 10291022
18:00+17ssw126182 0.0 102946
21:00+11ssw22775 0.0 102926
12 may, wed
wed1200:00+9ssw228227 0.0 103028
03:00+8ssw228382 0.0 103025
06:00+11ssw237273 0.0 1030110
09:00+17s12487 0.0 1030539
12:00+21s22344 0.0 10291024
15:00+22s23300 0.0 10281279
18:00+21s11470 0.0 102714
21:00+14se22630 0.0 102710
13 may, thu
thu1300:00+12sse22780 0.0 102719
03:00+12sse23875 0.0 102744
06:00+14sse258275 0.0 1026162
09:00+19s2463100 0.0 1026423
12:00+24s364441 0.0 10241941
15:00+19ese226484 0.0 102320
18:00+18ese376450 0.0 1021152
21:00+14se2887100 1.0 1020144
14 may, fri
fri1400:00+15sse3118793 0.5 1020330
03:00+14sse398974 0.5 1019252
06:00+14s288995 0.7 1019311
09:00+17ssw357799 0.8 1019909
12:00+18sw357047 0.1 10191034
15:00+22sw3647100 0.1 10181934
18:00+20ssw1263100 0.0 101745
21:00+15wsw22815 0.0 101825
15 may, sat
sat1500:00+13ssw118621 0.0 101710
03:00+12sse229155 0.0 101815
06:00+15se238015 0.0 1016144
09:00+20se355898 0.0 1015791
12:00+23sse4750100 0.0 10131429
15:00+26s484894 0.4 10112197
18:00+24sse385668 0.0 1008697
21:00+19s41365100 0.0 1007533